Location: Alafon
(8.4500°N, 4.2333°E)
Time: 17:38:00
(UTC+00:00)

deb Explorer IX - Pass Details

Date: 02 August 2021
Orbit: 545 x 1091 km, 38.8° (Epoch: 20 September)

Event Time Altitude Azimuth Distance (km) Brightness Sun altitude
Rises 18:46:36 0° 319° (NW) 3,640 ? -10.9°
Reaches altitude 10° 18:49:13 10° 324° (NW) 2,760 ? -11.5°
Maximum altitude 18:55:51 53° 39° (NE) 1,284 ? -13.0°
Enters shadow 19:00:59 19° 109° (ESE) 2,323 ? -14.2°
Drops below altitude 10° 19:02:53 10° 115° (ESE) 2,931 - -14.7°
Sets 19:05:44 0° 119° (ESE) 3,882 - -15.3°
